Weather History for Corpus Christi NAS, TX

Change the Weather History Date:

Wednesday, October 26, 2011

  Actual Average Record
Temperature  
Mean Temperature 78 °F -  
Max Temperature 86 °F 79 °F 87 °F (2010)
Min Temperature 71 °F 65 °F 46 °F (2005)
Cooling Degree Days 14    
Growing Degree Days 28 (Base 50)    
Moisture  
Dew Point 68 °F    
Average Humidity 71    
Maximum Humidity 93    
Minimum Humidity 51    
Precipitation  
Precipitation 0.00 in - - ()
Sea Level Pressure  
Sea Level Pressure 29.91 in    
Wind  
Wind Speed 11 mph (South)    
Max Wind Speed 18 mph    
Max Gust Speed 24 mph    
Visibility 10 miles    
Events      
Averages and records for this station are not official NWS values.
T = Trace of Precipitation, MM = Missing Value Source: NWS Daily Summary

Daily Weather History Graph

Daily Weather History Graph

Search for Another Location

Airport:

Trip Planner

Search our weather history database for the weather conditions in past years. The results will help you decide how hot, cold, wet, or windy it might be!

Date:

Astronomy

Oct. 26, 2011 Rise Set
Actual Time 7:35 AM CDT 6:50 PM CDT
Civil Twilight 7:11 AM CDT 7:13 PM CDT
Nautical Twilight 6:44 AM CDT 7:41 PM CDT
Astronomical Twilight 6:17 AM CDT 8:08 PM CDT
Moon 7:20 AM CDT (10/26) 6:40 PM CDT (10/26)
Length of Visible Light 12h 02m
Length of Day
11h 14m
Waning Crescent, 0% of the Moon is Illuminated
Oct 26
Waning Crescent
Oct 26
New
Nov 2
First Quarter
Nov 10
Full
Nov 18
Last Quarter

Hourly Weather History & Observations

Time (CDT) Temp. Heat Index Dew Point Humidity Pressure Visibility Wind Dir Wind Speed Gust Speed Precip Events Conditions
12:56 AM 77.0 °F - 70.0 °F 79% 29.99 in 10.0 mi South 9.2 mph - N/A   Clear
1:56 AM 75.9 °F - 69.1 °F 79% 29.98 in 10.0 mi South 9.2 mph - N/A   Clear
2:56 AM 75.9 °F - 70.0 °F 82% 29.96 in 10.0 mi South 10.4 mph - N/A   Clear
3:56 AM 75.9 °F - 69.1 °F 79% 29.94 in 10.0 mi South 9.2 mph - N/A   Clear
4:56 AM 75.0 °F - 69.1 °F 82% 29.93 in 10.0 mi South 8.1 mph - N/A   Clear
5:56 AM 73.0 °F - 69.1 °F 87% 29.93 in 10.0 mi SSW 6.9 mph - N/A   Clear
6:56 AM 71.1 °F - 69.1 °F 93% 29.94 in 10.0 mi SSW 6.9 mph - N/A   Partly Cloudy
7:56 AM 71.1 °F - 68.0 °F 90% 29.94 in 10.0 mi SSW 6.9 mph - N/A   Partly Cloudy
8:56 AM 75.9 °F - 69.1 °F 79% 29.94 in 10.0 mi South 6.9 mph - N/A   Partly Cloudy
9:56 AM 81.0 °F 84.4 °F 70.0 °F 69% 29.96 in 10.0 mi SSW 10.4 mph - N/A   Partly Cloudy
10:56 AM 82.9 °F 86.5 °F 69.1 °F 63% 29.97 in 10.0 mi South 13.8 mph 23.0 mph N/A   Partly Cloudy
11:56 AM 84.0 °F 87.0 °F 68.0 °F 58% 29.96 in 10.0 mi South 15.0 mph - N/A   Partly Cloudy
12:56 PM 84.9 °F 88.2 °F 68.0 °F 57% 29.94 in 10.0 mi South 15.0 mph 23.0 mph N/A   Partly Cloudy
1:56 PM 84.9 °F 87.6 °F 66.9 °F 55% 29.91 in 10.0 mi SSE 18.4 mph 23.0 mph N/A   Partly Cloudy
2:56 PM 84.9 °F 87.6 °F 66.9 °F 55% 29.88 in 10.0 mi SSE 18.4 mph - N/A   Partly Cloudy
3:56 PM 86.0 °F 88.2 °F 66.0 °F 51% 29.86 in 10.0 mi SSE 16.1 mph - N/A   Partly Cloudy
4:56 PM 82.9 °F 85.0 °F 66.0 °F 56% 29.84 in 10.0 mi SSE 17.3 mph 24.2 mph N/A   Partly Cloudy
5:56 PM 81.0 °F 83.0 °F 66.0 °F 60% 29.84 in 10.0 mi SE 17.3 mph 23.0 mph N/A   Partly Cloudy
6:56 PM 79.0 °F - 66.0 °F 64% 29.84 in 10.0 mi SSE 15.0 mph - N/A   Partly Cloudy
7:56 PM 78.1 °F - 68.0 °F 71% 29.85 in 10.0 mi SE 10.4 mph - N/A   Clear
8:56 PM 78.1 °F - 69.1 °F 74% 29.85 in 10.0 mi SSE 11.5 mph - N/A   Clear
9:56 PM 78.1 °F - 69.1 °F 74% 29.86 in 10.0 mi SSE 13.8 mph - N/A   Partly Cloudy
10:56 PM 78.1 °F - 70.0 °F 76% 29.86 in 10.0 mi SSE 13.8 mph - N/A   Partly Cloudy
11:56 PM 78.1 °F - 69.1 °F 74% 29.85 in 10.0 mi South 11.5 mph - N/A   Partly Cloudy